| time (UTC) | temp F | wind direction | speed MPH | gust MPH | rain 1hr in | rain 24hr in | rain mn in | humidity % | barometer mb |
| 20260504081530 | 50 | 136 | 0.0 | 1.0 | 0.00 | 0.00 | 0.00 | 55 | 1009.4 |
| 20260504080104 | 50 | 167 | 0.0 | 0.0 | 0.00 | 0.00 | 0.00 | 53 | 1009.4 |
| 20260504060104 | 52 | 245 | 0.0 | 0.0 | 0.00 | 0.00 | 0.00 | 50 | 1009.8 |
| 20260504044518 | 54 | 212 | 2.0 | 4.0 | 0.00 | 0.00 | 0.00 | 44 | 1009.5 |
| 20260504043042 | 53 | 188 | 2.0 | 6.0 | 0.00 | 0.00 | 0.00 | 48 | 1009.6 |
| 20260504041505 | 51 | 154 | 1.0 | 5.0 | 0.00 | 0.00 | 0.00 | 49 | 1009.4 |
| 20260504040037 | 52 | 210 | 0.0 | 2.0 | 0.00 | 0.00 | 0.00 | 47 | 1009.6 |
| 20260504034504 | 53 | 217 | 0.0 | 2.0 | 0.00 | 0.00 | 0.00 | 44 | 1009.6 |
| 20260504033042 | 52 | 288 | 0.0 | 2.0 | 0.00 | 0.00 | 0.00 | 44 | 1009.6 |
| 20260504031507 | 53 | 261 | 0.0 | 1.0 | 0.00 | 0.00 | 0.00 | 41 | 1009.5 |
| 20260504030040 | 53 | 225 | 0.0 | 1.0 | 0.00 | 0.00 | 0.00 | 42 | 1009.4 |
| 20260504024511 | 53 | 302 | 0.0 | 1.0 | 0.00 | 0.00 | 0.00 | 42 | 1009.7 |
| 20260504023041 | 54 | 229 | 0.0 | 1.0 | 0.00 | 0.00 | 0.00 | 41 | 1009.6 |
| 20260504021512 | 54 | 231 | 0.0 | 1.0 | 0.00 | 0.00 | 0.00 | 42 | 1009.5 |
| 20260504020046 | 52 | 231 | 0.0 | 0.0 | 0.00 | 0.00 | 0.00 | 43 | 1009.3 |
| 20260504014513 | 54 | 155 | 1.0 | 4.0 | 0.00 | 0.00 | 0.00 | 41 | 1009.2 |
| 20260504013049 | 55 | 129 | 0.0 | 1.0 | 0.00 | 0.00 | 0.00 | 39 | 1008.9 |
| 20260504011517 | 56 | 129 | 0.0 | 0.0 | 0.00 | 0.00 | 0.00 | 36 | 1008.8 |
| 20260504010048 | 57 | 129 | 0.0 | 0.0 | 0.00 | 0.00 | 0.00 | 35 | 1008.7 |
| 20260504004519 | 57 | 129 | 0.0 | 1.0 | 0.00 | 0.00 | 0.00 | 36 | 1008.6 |
| 20260504003049 | 58 | 293 | 0.0 | 0.0 | 0.00 | 0.00 | 0.00 | 34 | 1008.5 |
| 20260504001520 | 59 | 293 | 0.0 | 1.0 | 0.00 | 0.00 | 0.00 | 35 | 1008.6 |
| 20260504000127 | 62 | 293 | 0.0 | 0.0 | 0.00 | 0.00 | 0.00 | 37 | 1008.6 |
| 20260503234520 | 66 | 293 | 0.0 | 0.0 | 0.00 | 0.00 | 0.00 | 32 | 1008.5 |
| 20260503233046 | 65 | 293 | 0.0 | 1.0 | 0.00 | 0.00 | 0.00 | 31 | 1008.5 |
| 20260503231515 | 65 | 262 | 0.0 | 4.0 | 0.00 | 0.00 | 0.00 | 28 | 1008.3 |
| 20260503230045 | 65 | 252 | 0.0 | 3.0 | 0.00 | 0.00 | 0.00 | 28 | 1008.3 |
| 20260503224524 | 65 | 204 | 0.0 | 3.0 | 0.00 | 0.00 | 0.00 | 28 | 1008.4 |
| 20260503223042 | 64 | 221 | 2.0 | 5.0 | 0.00 | 0.00 | 0.00 | 28 | 1008.6 |
| 20260503221513 | 65 | 291 | 1.0 | 7.0 | 0.00 | 0.00 | 0.00 | 27 | 1008.8 |
| 20260503220041 | 64 | 303 | 0.0 | 6.0 | 0.00 | 0.00 | 0.00 | 28 | 1008.8 |
| 20260503214507 | 64 | 324 | 1.0 | 8.0 | 0.00 | 0.00 | 0.00 | 29 | 1008.8 |
| 20260503213034 | 63 | 316 | 2.0 | 7.0 | 0.00 | 0.00 | 0.00 | 28 | 1009.0 |
| 20260503211504 | 62 | 321 | 4.0 | 9.0 | 0.00 | 0.00 | 0.00 | 31 | 1009.1 |
| 20260503210029 | 62 | 331 | 3.0 | 7.0 | 0.00 | 0.00 | 0.00 | 29 | 1009.2 |
| 20260503204601 | 62 | 164 | 4.0 | 10.0 | 0.00 | 0.00 | 0.00 | 29 | 1009.3 |
| 20260503203032 | 62 | 255 | 2.0 | 6.0 | 0.00 | 0.00 | 0.00 | 29 | 1009.3 |
| 20260503201559 | 62 | 283 | 4.0 | 10.0 | 0.00 | 0.00 | 0.00 | 30 | 1009.6 |
| 20260503200017 | 61 | 290 | 0.0 | 10.0 | 0.00 | 0.00 | 0.00 | 34 | 1009.9 |
| 20260503194553 | 61 | 293 | 4.0 | 14.0 | 0.00 | 0.00 | 0.00 | 32 | 1010.1 |
| 20260503193014 | 60 | 252 | 3.0 | 8.0 | 0.00 | 0.00 | 0.00 | 32 | 1010.2 |
| 20260503191544 | 60 | 256 | 6.0 | 12.0 | 0.00 | 0.00 | 0.00 | 32 | 1010.5 |
| 20260503190010 | 61 | 32 | 3.0 | 6.0 | 0.00 | 0.00 | 0.00 | 36 | 1010.7 |
| 20260503184556 | 59 | 338 | 4.0 | 10.0 | 0.00 | 0.00 | 0.00 | 33 | 1011.0 |
| 20260503183006 | 58 | 235 | 7.0 | 11.0 | 0.00 | 0.00 | 0.00 | 33 | 1011.1 |
| 20260503181537 | 58 | 343 | 3.0 | 13.0 | 0.00 | 0.00 | 0.00 | 36 | 1011.3 |
| 20260503180059 | 58 | 307 | 1.0 | 13.0 | 0.00 | 0.00 | 0.00 | 35 | 1011.3 |
| 20260503174529 | 56 | 263 | 3.0 | 11.0 | 0.00 | 0.00 | 0.00 | 35 | 1011.7 |
| 20260503173054 | 56 | 50 | 3.0 | 11.0 | 0.00 | 0.00 | 0.00 | 38 | 1011.8 |
| 20260503171521 | 55 | 12 | 2.0 | 14.0 | 0.00 | 0.00 | 0.00 | 40 | 1012.1 |
| 20260503170105 | 55 | 20 | 2.0 | 17.0 | 0.00 | 0.00 | 0.00 | 39 | 1012.3 |